User: anonymous   Login
Location: Caltech
(34.1382°N, 118.1253°W)
Time: 21:45:58
(UTC-07:00)
Language:

NOAA 19 - Orbit

View from above orbital plane
View from above orbital plane
View from above satellite
View from above satellite

Ground track
Ground track

The orbit data is extracted from the following two-line orbital elements,

1 33591U 09005A   16209.47579517  .00000084  00000-0  70773-4 0  9998
2 33591  99.0430 166.5859 0015051 104.2172 256.0672 14.12092121384823
Epoch (UTC): 27 July 2016 11:25:08
Eccentricity: 0.0015051
inclination: 99.0430°
perigee height: 841 km
apogee height: 863 km
right ascension of ascending node: 166.5859°
argument of perigee: 104.2172°
revolutions per day: 14.12092121
mean anomaly at epoch: 256.0672°
orbit number at epoch: 38482

The dashed part of the orbit path shows where the satellite is in the earth's shadow,  

DLR